Regional Weather Roundup
Issued by NWS

Home | Current Version | Previous Version | Text Only | Print | Product List | Glossary Off
Versions: 1 2 3 4 5 6 7 8 9 10 11 12 13 14 15 16 17 18 19 20 21 22 23 24 25 26 27 28 29 30 31 32 33 34 35 36 37 38 39 40 41 42 43 44 45 46 47 48 49 50

000
ASUS43 KLOT 280012
RWRIL

ILLINOIS REGIONAL WEATHER ROUNDUP
NATIONAL WEATHER SERVICE CHICAGO/ROMEOVILLE IL
700 PM CDT FRI MAR 27 2015

NOTE: "FAIR" INDICATES FEW OR NO CLOUDS BELOW 12,000 FEET WITH NO
SIGNIFICANT WEATHER AND/OR OBSTRUCTIONS TO VISIBILITY.

* THESE STATIONS ARE NOT UNDER NWS QUALITY CONTROL. THEY ALSO MAY NOT
  REPORT WEATHER SUCH AS PRECIPITATION OR FOG.

ILZ001-002-007-009-015-016-024-280100-
NORTHWEST ILLINOIS

CITY           SKY/WX    TMP DP  RH WIND       PRES   REMARKS
MOLINE         CLEAR     35   7  31 NE6       30.16R WCI  30
6HR MIN TEMP:  33; 6HR MAX TEMP:  39;

STERLING*      CLEAR     32  10  40 NE7       30.18S WCI  26
SAVANNA*       CLEAR     33   8  35 N6        30.18R WCI  27
$$

ILZ003-004-008-010-011-017-018-280100-
NORTH CENTRAL ILLINOIS

CITY           SKY/WX    TMP DP  RH WIND       PRES   REMARKS
ROCKFORD       CLEAR     31   6  35 N9        30.18R WCI  23
6HR MIN TEMP:  31; 6HR MAX TEMP:  35;

FREEPORT*      CLEAR     29   9  41 N5        30.19S WCI  24
ROCHELLE*      CLEAR     31  10  41 NE8       30.17R WCI  23
DE KALB*       CLEAR     29  11  47 N8        30.16S WCI  21
PERU*          CLEAR     33  10  39 N9        30.17S WCI  25
$$

ILZ005-006-012>014-019>023-280100-
NORTHEAST ILLINOIS

CITY           SKY/WX    TMP DP  RH WIND       PRES   REMARKS
CHICAGO-OHARE  PTCLDY    26  13  57 NE12      30.18R WCI  16
6HR MIN TEMP:  26; 6HR MAX TEMP:  31;

CHICAGO-MIDWAY PTCLDY    27  13  55 N13       30.18R WCI  16
6HR MIN TEMP:  27; 6HR MAX TEMP:  32;

AURORA         CLEAR     31   8  38 N9        30.16R WCI  23
6HR MIN TEMP:  31; 6HR MAX TEMP:  35;

LANSING*       CLOUDY    26  13  59 N13G18    30.19R WCI  15
JOLIET*        CLEAR     31  13  47 NE9       30.17R WCI  23
WAUKEGAN       CLEAR     24  13  62 N12G20    30.18R WCI  13
6HR MIN TEMP:  24; 6HR MAX TEMP:  28;

DUPAGE AIRPORT CLEAR     27  13  55 E12       30.16R WCI  17
6HR MIN TEMP:  27; 6HR MAX TEMP:  35;

KANKAKEE*      CLEAR     28  14  57 NE9       30.17S WCI  19
WHEELING       CLEAR     25  13  60 NE9       30.20R WCI  15
6HR MIN TEMP:  25; 6HR MAX TEMP:  30;

MORRIS*        CLEAR     32  11  41 N6        30.16R WCI  26
ROMEOVILLE*    CLEAR     28  13  54 NE12      30.17R WCI  18
NORTHERLY ISL    N/A     25  14  63 N15         N/A  WCI  13
$$

LMZ740>746-280100-
SOUTHERN LAKE MICHIGAN

STATION/POSITION SKY/WX   TEMP    WIND        PRES    VSBY  WAVE
                          AIR SEA DIR/SP/G                  HT/PER
                          (F)     (DEG/KT/KT) (MB)    (MI)  (FT/S)
HARRISON CRIB              24     360/ 20/ 24   N/A
BURNHAM HARBOR             25      10/ 12/ 18   N/A
CALUMET HARBOR             26     360/ 11/ 19 1020.8R
BURNS HARBOR               25     360/ 18/ 24 1021.7
MICHIGAN CITY              24     340/ 24/ 28   N/A
$$

ILZ025>027-034>036-040-047-049-050-058-095>099-280100-
WEST-CENTRAL ILLINOIS

CITY           SKY/WX    TMP DP  RH WIND       PRES   REMARKS
QUINCY         CLEAR     35  16  45 N7        30.15S WCI  29
GALESBURG*     CLEAR     34  11  37 N6        30.16S WCI  29
MACOMB*        CLEAR     35  12  39 N7        30.19S WCI  29
JACKSONVILLE*  CLEAR     38  15  38 N12       30.16R WCI  30
PITTSFIELD*    CLEAR     38  16  40 N7        30.16S WCI  33
$$

ILZ028>032-037-038-041>044-048-051>054-059>061-280100-
CENTRAL ILLINOIS

CITY           SKY/WX    TMP DP  RH WIND       PRES   REMARKS
PONTIAC        CLEAR     32  15  49 N9        30.17S WCI  25
BLOOMINGTON    CLEAR     33  13  44 N13       30.16R WCI  24
DECATUR        CLEAR     33  12  41 N12       30.16R WCI  24
PEORIA         CLEAR     34  11  38 NE8       30.17S WCI  27
6HR MIN TEMP:  34; 6HR MAX TEMP:  38;

LACON*         CLEAR     32  11  41 CALM      30.17R
LINCOLN*       CLEAR     35  14  42 N6        30.17S WCI  30
SPRINGFIELD    CLEAR     36  13  38 N8        30.17R WCI  30
6HR MIN TEMP:  36; 6HR MAX TEMP:  41;

TAYLORVILLE    CLEAR     34  19  55 N10       30.15S WCI  26
$$

ILZ033-039-045-046-055>057-062-063-280100-
EAST-CENTRAL ILLINOIS

CITY           SKY/WX    TMP DP  RH WIND       PRES   REMARKS
CHAMPAIGN      FAIR      32  13  45 NW16      30.14R WCI  21
DANVILLE*      CLEAR     28  18  65 NE9       30.13R WCI  20
RANTOUL*       CLEAR     33  12  42 N9        30.14S WCI  25
MATTOON        CLEAR     32  15  49 N14       30.14R WCI  22
PARIS*         MOCLDY    32  18  56 N8        30.15R WCI  25
$$

ILZ079-100>102-280100-
SOUTHWEST ILLINOIS

CITY           SKY/WX    TMP DP  RH WIND       PRES   REMARKS
ALTON          PTCLDY    39  12  33 N12       30.15S WCI  32
BELLEVILLE     PTCLDY    39  20  46 N8        30.14S WCI  33
CAHOKIA*       PTCLDY    40  21  46 N6        30.16R
SPARTA*        MOCLDY    37  22  54 N3        30.16S
$$

ILZ064>066-069>071-074>076-080>082-084>086-088>090-092>094-280100-
SOUTH-CENTRAL ILLINOIS

CITY           SKY/WX    TMP DP  RH WIND       PRES   REMARKS
CARBONDALE     MOCLDY    37  22  54 NW8       30.16R WCI  31
6HR MIN TEMP:  37; 6HR MAX TEMP:  40;

CAIRO*         MOCLDY    38  23  55 NW10      30.17R WCI  31
EFFINGHAM*     PTCLDY    35  14  41 NW12      30.16S WCI  27
MARION         MOCLDY    37  19  48 NW7       30.16S WCI  32
MT. VERNON     MOCLDY    37  18  44 N3        30.15S
CENTRALIA*     MOCLDY    37  20  50 N10       30.14S WCI  30
SALEM*         MOCLDY    38  20  49 N9        30.15R WCI  32
METROPOLIS*    CLOUDY    38  22  53 N9        30.15R WCI  31
$$

ILZ067-068-072-073-078-083-087-091-280100-
SOUTHEAST ILLINOIS

CITY           SKY/WX    TMP DP  RH WIND       PRES   REMARKS
LAWRENCEVILLE  MOCLDY    34  21  59 N14       30.14R WCI  25
FLORA*         CLOUDY    37  20  50 N12       30.15R WCI  29
FAIRFIELD*     MOCLDY    37  20  50 NW7       30.14R WCI  31
HARRISBURG*    MOCLDY    37  20  49 NW8       30.16R WCI  31
ROBINSON*      PTCLDY    32  20  62 N9        30.16R WCI  24
CARMI*         CLOUDY    37  17  44 NW15G21   30.13S WCI  28
$$

ABBREVIATIONS USED IN REMARKS
   TC - TEMPERATURE IN CELSIUS
  WCI - WIND CHILL INDEX
   HX - HEAT INDEX
  VSB - VISIBILITY
$$




USA.gov is the U.S. government's official web portal to all federal, state and local government web resources and services.